TimeEDT,TemperatureF,Dew PointF,Humidity,Sea Level PressureIn,VisibilityMPH,Wind Direction,Wind SpeedMPH,Gust SpeedMPH,PrecipitationIn,Events,Conditions,WindDirDegrees,DateUTC
12:15 AM,60.8,44.6,55,30.02,10.0,SSW,5.8,-,N/A,,Clear,200,2013-04-24 04:15:00
12:35 AM,60.8,44.6,55,30.02,10.0,South,6.9,-,N/A,,Clear,190,2013-04-24 04:35:00
12:55 AM,60.8,44.6,55,30.02,10.0,South,5.8,-,N/A,,Scattered Clouds,190,2013-04-24 04:55:00
1:15 AM,60.8,44.6,55,30.02,10.0,South,6.9,-,N/A,,Scattered Clouds,180,2013-04-24 05:15:00
1:35 AM,60.8,44.6,55,30.02,10.0,South,5.8,-,N/A,,Clear,190,2013-04-24 05:35:00
1:55 AM,60.8,44.6,55,30.01,10.0,South,6.9,-,N/A,,Clear,180,2013-04-24 05:55:00
2:15 AM,60.8,44.6,55,29.99,10.0,South,8.1,-,N/A,,Clear,180,2013-04-24 06:15:00
2:35 AM,60.8,44.6,55,29.98,10.0,South,8.1,-,N/A,,Clear,190,2013-04-24 06:35:00
2:55 AM,60.8,44.6,55,29.97,10.0,South,9.2,-,N/A,,Clear,190,2013-04-24 06:55:00
3:15 AM,60.8,44.6,55,29.96,10.0,South,6.9,-,N/A,,Clear,190,2013-04-24 07:15:00
3:35 AM,60.8,44.6,55,29.96,10.0,South,6.9,-,N/A,,Clear,190,2013-04-24 07:35:00
3:55 AM,60.8,44.6,55,29.95,10.0,South,6.9,-,N/A,,Clear,180,2013-04-24 07:55:00
4:15 AM,60.8,46.4,59,29.94,10.0,South,5.8,-,N/A,,Clear,170,2013-04-24 08:15:00
4:35 AM,60.8,46.4,59,29.94,10.0,South,6.9,-,N/A,,Clear,180,2013-04-24 08:35:00
4:55 AM,60.8,46.4,59,29.95,10.0,SSW,4.6,-,N/A,,Clear,200,2013-04-24 08:55:00
5:15 AM,60.8,46.4,59,29.94,10.0,South,6.9,-,N/A,,Scattered Clouds,190,2013-04-24 09:15:00
5:35 AM,60.8,46.4,59,29.95,10.0,SSW,10.4,-,N/A,,Scattered Clouds,200,2013-04-24 09:35:00
5:55 AM,62.6,46.4,55,29.94,10.0,South,9.2,-,N/A,,Mostly Cloudy,190,2013-04-24 09:55:00
6:15 AM,62.6,46.4,55,29.93,10.0,South,9.2,19.6,N/A,,Mostly Cloudy,190,2013-04-24 10:15:00
6:35 AM,62.6,46.4,55,29.92,10.0,South,11.5,17.3,N/A,,Scattered Clouds,190,2013-04-24 10:35:00
6:55 AM,62.6,46.4,55,29.92,10.0,SSW,8.1,-,N/A,Thunderstorm,Clear,200,2013-04-24 10:55:00
7:15 AM,62.6,46.4,55,29.93,10.0,SSW,6.9,-,N/A,Thunderstorm,Thunderstorm,200,2013-04-24 11:15:00
7:35 AM,62.6,46.4,55,29.93,10.0,SSW,9.2,17.3,N/A,,Mostly Cloudy,210,2013-04-24 11:35:00
7:55 AM,62.6,46.4,55,29.93,10.0,SSW,11.5,18.4,N/A,,Overcast,210,2013-04-24 11:55:00
8:15 AM,62.6,48.2,59,29.92,10.0,South,8.1,-,N/A,,Mostly Cloudy,190,2013-04-24 12:15:00
8:35 AM,62.6,48.2,59,29.93,10.0,SSW,11.5,18.4,N/A,,Mostly Cloudy,210,2013-04-24 12:35:00
8:55 AM,62.6,48.2,59,29.91,10.0,South,10.4,18.4,N/A,,Mostly Cloudy,190,2013-04-24 12:55:00
9:15 AM,62.6,50.0,63,29.91,10.0,SSW,10.4,17.3,N/A,,Mostly Cloudy,210,2013-04-24 13:15:00
9:35 AM,62.6,50.0,63,29.90,10.0,South,10.4,18.4,N/A,,Mostly Cloudy,190,2013-04-24 13:35:00
9:55 AM,62.6,50.0,63,29.89,10.0,SSW,10.4,-,N/A,Thunderstorm,Scattered Clouds,200,2013-04-24 13:55:00
10:15 AM,64.4,51.8,64,29.90,10.0,SSW,6.9,-,N/A,,Mostly Cloudy,210,2013-04-24 14:15:00
10:35 AM,64.4,51.8,64,29.92,10.0,SW,12.7,19.6,N/A,,Mostly Cloudy,220,2013-04-24 14:35:00
10:55 AM,66.2,51.8,60,29.93,10.0,SSW,15.0,23.0,N/A,Thunderstorm,Overcast,210,2013-04-24 14:55:00
11:15 AM,66.2,51.8,60,29.94,10.0,SW,10.4,-,N/A,,Overcast,220,2013-04-24 15:15:00
11:35 AM,62.6,53.6,72,29.98,5.0,WSW,20.7,29.9,0.03,Rain-Thunderstorm,Rain,240,2013-04-24 15:35:00
11:55 AM,60.8,55.4,82,29.99,7.0,West,11.5,21.9,0.06,Rain-Thunderstorm,Thunderstorms and Rain,260,2013-04-24 15:55:00
12:15 PM,59.0,55.4,88,30.01,5.0,WSW,17.3,20.7,0.03,Rain,Rain,250,2013-04-24 16:15:00
12:35 PM,59.0,55.4,88,30.02,5.0,WSW,16.1,24.2,0.10,Rain,Rain,250,2013-04-24 16:35:00
12:55 PM,59.0,55.4,88,29.99,4.0,SW,12.7,21.9,0.16,Rain,Rain,230,2013-04-24 16:55:00
1:15 PM,59.0,55.4,88,29.98,5.0,SW,12.7,20.7,0.06,Rain,Heavy Rain,230,2013-04-24 17:15:00
1:35 PM,59.0,55.4,88,30.02,10.0,West,25.3,39.1,0.07,,Overcast,280,2013-04-24 17:35:00
1:55 PM,50.0,46.4,87,30.05,10.0,WNW,17.3,26.5,0.07,,Overcast,300,2013-04-24 17:55:00
2:15 PM,50.0,46.4,87,30.05,10.0,West,15.0,26.5,N/A,,Overcast,280,2013-04-24 18:15:00
2:35 PM,50.0,44.6,82,30.07,10.0,West,15.0,19.6,N/A,,Overcast,270,2013-04-24 18:35:00
2:55 PM,48.2,44.6,87,30.08,10.0,West,12.7,-,N/A,,Overcast,270,2013-04-24 18:55:00
3:15 PM,48.2,44.6,87,30.08,10.0,West,11.5,-,N/A,,Overcast,270,2013-04-24 19:15:00
3:35 PM,48.2,42.8,82,30.10,10.0,West,13.8,18.4,N/A,,Overcast,270,2013-04-24 19:35:00
3:55 PM,48.2,42.8,82,30.10,10.0,West,17.3,24.2,N/A,,Overcast,280,2013-04-24 19:55:00
4:15 PM,48.2,42.8,82,30.12,10.0,West,11.5,17.3,N/A,,Overcast,280,2013-04-24 20:15:00
4:35 PM,46.4,41.0,81,30.13,10.0,NW,11.5,17.3,N/A,,Overcast,310,2013-04-24 20:35:00
4:55 PM,46.4,41.0,81,30.13,10.0,WNW,10.4,16.1,N/A,,Overcast,300,2013-04-24 20:55:00
5:15 PM,46.4,41.0,81,30.15,10.0,WNW,9.2,-,N/A,,Overcast,300,2013-04-24 21:15:00
5:35 PM,46.4,41.0,81,30.16,10.0,NW,11.5,19.6,N/A,,Overcast,310,2013-04-24 21:35:00
5:55 PM,44.6,39.2,81,30.17,10.0,NW,9.2,16.1,N/A,,Overcast,310,2013-04-24 21:55:00
6:15 PM,44.6,39.2,81,30.18,10.0,NW,9.2,-,N/A,,Overcast,320,2013-04-24 22:15:00
6:35 PM,44.6,37.4,76,30.19,10.0,NW,10.4,-,N/A,,Overcast,320,2013-04-24 22:35:00
6:55 PM,44.6,37.4,76,30.20,10.0,NW,8.1,-,N/A,,Overcast,310,2013-04-24 22:55:00
7:15 PM,44.6,37.4,76,30.21,10.0,NW,5.8,10.4,N/A,,Overcast,310,2013-04-24 23:15:00
7:35 PM,44.6,37.4,76,30.21,10.0,NW,5.8,-,N/A,,Overcast,310,2013-04-24 23:35:00
7:55 PM,44.6,37.4,76,30.22,10.0,WNW,5.8,-,N/A,,Overcast,290,2013-04-24 23:55:00
8:15 PM,44.6,37.4,76,30.22,10.0,WNW,4.6,-,N/A,,Overcast,290,2013-04-25 00:15:00
8:35 PM,44.6,37.4,76,30.23,10.0,WNW,4.6,-,N/A,,Overcast,300,2013-04-25 00:35:00
8:55 PM,44.6,37.4,76,30.24,10.0,WNW,4.6,-,N/A,,Overcast,290,2013-04-25 00:55:00
9:15 PM,44.6,37.4,76,30.24,10.0,NW,3.5,-,N/A,,Overcast,310,2013-04-25 01:15:00
9:35 PM,44.6,37.4,76,30.25,10.0,NW,3.5,-,N/A,,Overcast,310,2013-04-25 01:35:00
9:55 PM,44.6,37.4,76,30.25,10.0,WNW,3.5,-,N/A,,Overcast,300,2013-04-25 01:55:00
11:15 PM,44.6,37.4,76,30.27,10.0,NNW,3.5,-,N/A,,Overcast,330,2013-04-25 03:15:00
11:35 PM,44.6,37.4,76,30.28,10.0,Calm,Calm,-,N/A,,Overcast,0,2013-04-25 03:35:00
11:55 PM,42.8,37.4,81,30.28,10.0,NW,3.5,-,N/A,,Overcast,310,2013-04-25 03:55:00